Miscellaneous Local Product
Issued by NWS Hastings, NE

Home | Current Version | Previous Version | Graphics & Text | Print | Product List | Glossary On
Versions: 1 2 3 4 5 6 7 8 9 10 11 12 13 14 15 16 17 18 19 20 21 22 23 24 25 26 27 28 29 30 31 32 33 34 35 36 37 38 39 40 41 42 43 44 45 46 47 48 49 50
000
AXUS43 KGID 271802
MISGRI

GID CWA HOURLY WEATHER ROUNDUP
NATIONAL WEATHER SERVICE HASTINGS NE
100 PM CDT MON APR 27 2015

NOTE: "FAIR" INDICATES FEW OR NO CLOUDS BELOW 12,000 FEET WITH NO
SIGNIFICANT WEATHER AND/OR OBSTRUCTIONS TO VISIBILITY.

...SOUTH CENTRAL NEBRASKA...

CITY           SKY/WX    TMP DP  RH WIND       PRES   REMARKS
GRAND ISLAND   MOSUNNY   62  32  32 E10       30.22F
HASTINGS       PTSUNNY   60  36  40 NE12      30.20F
KEARNEY        PTSUNNY   59  36  41 N8G18     30.22S
ORD            MOSUNNY   65  31  28 VRB6G17   30.20S
YORK           MOSUNNY   61  32  33 NE12      30.20F
AURORA         MOSUNNY   61  31  33 NE14G20   30.20F
LEXINGTON      PTSUNNY   59  37  44 NE7       30.23S
HOLDREGE       PTSUNNY   58  31  36 NE20      30.21F
HEBRON         PTSUNNY   58  27  31 E12G20    30.19F

...NEBRASKA PANHANDLE...

CITY           SKY/WX    TMP DP  RH WIND       PRES   REMARKS
CHADRON        PTSUNNY   53  45  74 NE10      30.29S
ALLIANCE       MOSUNNY   54  36  50 CALM      30.26S
SCOTTSBLUFF    CLOUDY    50  40  68 W5        30.29S
SIDNEY         CLOUDY    51  37  58 VRB5      30.28S

...WESTERN AND NORTH CENTRAL NEBRASKA...

CITY           SKY/WX    TMP DP  RH WIND       PRES   REMARKS
VALENTINE      MOSUNNY   65  31  28 N8        30.23F
AINSWORTH      MOSUNNY   64  32  30 N7        30.23S
ONEILL         MOSUNNY   63  33  31 NE14G20   30.23R
BROKEN BOW     MOSUNNY   64  34  32 N12       30.22S
IMPERIAL       PTSUNNY   56  32  40 NE10      30.24F
NORTH PLATTE   PTSUNNY   60  32  34 VRB6      30.24F
MCCOOK         PTSUNNY   58  33  39 E16       30.22F

...EASTERN NEBRASKA...

CITY           SKY/WX    TMP DP  RH WIND       PRES   REMARKS
NORFOLK        SUNNY     66  31  27 N8        30.20F
SO SIOUX CITY  SUNNY     66  27  23 NE9       30.20F
TEKAMAH        SUNNY     66  28  24 VRB5      30.20F
COLUMBUS       SUNNY     64  34  32 E10       30.22F
ALBION         SUNNY     63  33  32 N8        30.20F
OMAHA EPPLEY   MOSUNNY   64  30  27 N12G20    30.18F
OFFUTT AFB     SUNNY     64  32  30 NE13      30.17F
MILLARD        SUNNY     62  34  34 NE8       30.19F
LINCOLN        MOSUNNY   64  32  30 E9G18     30.20F
NEBRASKA CITY  MOSUNNY   61  26  25 E8G17     30.18F
BEATRICE       PTSUNNY   60  32  35 NE13      30.18F
FALLS CITY     MOSUNNY   63  36  36 E15G22    30.15F

...NORTHERN KANSAS...

CITY           SKY/WX    TMP DP  RH WIND       PRES   REMARKS
GOODLAND       SUNNY     53  33  46 N17       30.22S
HILL CITY      MOSUNNY   57  35  43 E20       30.19F
NORTON         CLEAR     57  30  35 NE20      30.19F
PHILLIPSBURG   SUNNY     61  34  36 NE10G23   30.19F
SMITH CENTER   SUNNY     57  30  35 NE20      30.19F
BELOIT         SUNNY     57  36  44 NE13G20   30.16F
HAYS           MOSUNNY   57  34  41 NE23G31   30.14F
RUSSELL        MOSUNNY   58  36  43 NE20G30   30.11F
CONCORDIA      NOT AVBL
SALINA         PTSUNNY   61  35  37 E18       30.11F
TOPEKA         PTSUNNY   60  38  43 E13       30.13F



USA.gov is the U.S. government's official web portal to all federal, state and local government web resources and services.